This is the latest recevied weather packets stored in our database for station/object DH9SB-6. If no packets are shown the sender has not sent any weather packets the latest 10 day(s).
| Time | Temp. | Humidity | Pressure | Rain* | Wind** | Luminosity | Snow |
|---|---|---|---|---|---|---|---|
| 1787664448 | 18.89° C | 71% | - | 0 mm | - | - | - |
| 1787663870 | 18.89° C | 72% | - | 0 mm | - | - | - |
| 1787663246 | 18.89° C | 73% | - | 0 mm | - | - | - |
| 1787662669 | 18.33° C | 73% | - | 0 mm | - | - | - |
| 1787662045 | 17.78° C | 72% | - | 0 mm | - | - | - |
| 1787661470 | 18.33° C | 74% | - | 0 mm | - | - | - |
| 1787660846 | 18.33° C | 78% | - | 0 mm | - | - | - |
| 1787660269 | 17.78° C | 83% | - | 0 mm | - | - | - |
| 1787659645 | 17.22° C | 90% | - | 0.51 mm | - | - | - |
| 1787659070 | 16.11° C | 92% | - | 1.02 mm | - | - | - |
| 1787658455 | 15.56° C | 92% | - | 1.52 mm | - | - | - |
| 1787657869 | 15° C | 92% | - | 1.78 mm | - | - | - |
| 1787657246 | 15° C | 92% | - | 3.81 mm | - | - | - |
| 1787656679 | 15° C | 91% | - | 5.08 mm | - | - | - |
| 1787656046 | 15° C | 90% | - | 4.57 mm | - | - | - |
| 1787655470 | 15° C | 89% | - | 4.32 mm | - | - | - |
| 1787654847 | 15° C | 87% | - | 3.56 mm | - | - | - |
| 1787654269 | 15.56° C | 83% | - | 3.3 mm | - | - | - |
| 1787653645 | 16.11° C | 81% | - | 1.27 mm | - | - | - |
| 1787653074 | 16.67° C | 79% | - | 0 mm | - | - | - |
| 1787652494 | 16.67° C | 77% | - | 0 mm | - | - | - |
| 1787651869 | 17.22° C | 79% | - | 0 mm | - | - | - |
| 1787651248 | 17.22° C | 79% | - | 0 mm | - | - | - |
| 1787650680 | 17.22° C | 78% | - | 0.25 mm | - | - | - |
| 1787650045 | 17.22° C | 80% | - | 0.25 mm | - | - | - |
* Rain latest hour (hover to see other rain measurements)
** Current wind speed in m/s (hover to see current wind gust speed)